Location: Newark
(40.9833°N, 0.0333°W)
Time: 00:26:05
(UTC+00:00)

Altair - Pass Details

Date: 05 November 2020
Orbit: 1502 x 1682 km, 47.2° (Epoch: 03 December)

Event Time Altitude Azimuth Distance (km) Brightness Sun altitude
Rises 08:45:02 0° 297° (WNW) 4,710 9.5 19.7°
Reaches altitude 10° 08:48:03 10° 296° (WNW) 3,747 9.1 20.1°
Maximum altitude 08:57:32 75° 213° (SSW) 1,652 8.1 21.4°
Drops below altitude 10° 09:07:24 10° 131° (SE) 3,878 11.6 22.6°
Sets 09:10:34 0° 129° (SE) 4,882 11.5 23.0°
